GFSFLT1_250_rhum_198.txt.gz
RH
49 44 49 56 51 45 50 40 31 38 60 69 66 88 78 93 85 100 99 85 81 91 72 62 60 82 93 100 100 100 100 100
43 56 52 55 58 62 67 58 40 54 71 85 79 76 87 91 100 100 100 80 68 72 81 67 80 57 57 92 100 100 100 100
42 25 63 69 69 61 86 64 53 36 27 47 88 100 96 99 100 99 94 85 92 88 100 90 76 65 50 63 90 100 100 100
81 54 56 83 78 59 72 63 38 36 27 30 63 88 100 100 99 96 100 100 100 96 89 86 94 83 83 80 90 100 100 100
100 100 85 79 66 40 53 69 53 38 32 34 43 55 76 100 100 100 100 100 87 92 77 81 95 100 100 100 100 100 100 100
61 100 100 100 100 99 84 94 76 56 44 41 40 49 52 87 92 98 100 100 94 98 69 61 71 100 100 100 100 100 100 100
70 63 100 100 100 100 100 100 100 88 68 58 50 50 57 64 90 90 82 78 75 77 80 70 58 88 100 100 100 100 100 100
79 66 84 100 86 100 100 98 100 100 96 85 70 72 92 100 94 100 84 76 78 87 97 100 100 100 100 100 100 100 100 98
67 87 81 94 100 100 100 100 100 100 100 100 92 80 79 80 86 99 100 98 97 97 98 100 100 100 89 87 90 85 77 83
54 63 62 73 100 100 100 100 100 99 100 100 100 100 97 96 92 93 100 100 96 99 96 92 72 61 69 86 94 97 86 90
45 57 67 62 68 100 100 100 100 100 100 100 100 100 100 100 100 100 100 100 96 87 80 89 100 100 100 99 100 100 98 98
99 54 58 59 59 60 100 100 100 100 100 100 100 100 100 99 96 96 96 93 96 100 100 100 100 100 100 100 100 100 100 96
100 50 51 58 50 53 69 100 100 100 100 100 100 100 100 100 100 100 100 100 100 100 100 100 100 100 100 100 100 100 100 100
94 76 70 67 73 71 72 73 98 100 100 100 100 100 100 100 100 100 100 100 100 100 99 98 98 98 97 98 98 100 100 100
100 96 88 92 74 85 76 96 100 100 100 100 100 100 100 100 100 100 100 100 97 89 81 84 88 96 100 100 100 100 100 100
97 100 100 98 98 85 76 85 92 100 100 100 100 98 100 100 100 100 100 100 100 100 100 100 100 100 100 100 100 100 100 100
77 94 100 100 100 100 81 72 80 83 95 100 100 100 99 93 100 100 100 100 100 100 100 100 100 100 100 100 100 100 100 100
61 75 82 99 100 100 100 100 88 90 86 87 98 100 100 100 100 100 100 100 100 100 100 100 100 100 100 100 100 100 100 100
64 64 76 91 100 100 100 95 97 95 73 84 79 76 76 94 100 100 100 100 100 100 100 100 100 100 100 100 100 100 100 100

GFSFLT1_250_rhum_201.txt.gz
RH
21 34 55 94 60 56 56 54 52 56 66 65 76 67 78 90 84 82 74 89 100 100 100 94 95 92 88 88 84 69 65 92
31 18 32 42 72 80 73 60 55 58 63 63 74 50 31 41 60 74 75 84 100 94 98 89 87 78 76 74 80 91 84 80
81 29 16 38 68 97 100 94 74 68 68 69 69 80 74 62 34 50 68 68 66 70 91 100 100 93 71 74 86 99 91 99
31 35 28 29 46 65 86 87 88 73 76 76 70 70 55 41 43 30 47 55 60 80 99 100 100 95 91 100 88 87 91 100
52 50 69 45 44 54 66 66 75 80 96 87 78 72 64 48 38 48 64 58 66 100 100 100 100 100 98 90 79 75 96 98
83 55 60 67 27 30 56 76 94 100 100 100 100 100 87 76 52 41 46 67 60 64 71 92 100 100 100 98 99 88 70 85
99 96 53 47 61 58 60 55 63 67 70 96 100 100 100 98 86 62 63 62 62 79 72 77 86 92 100 100 98 100 100 98
46 55 56 50 50 61 66 63 66 94 100 100 100 100 100 100 100 98 78 73 92 97 67 53 54 58 98 100 100 100 100 100
50 44 38 46 45 44 58 60 93 100 100 100 100 100 100 93 91 95 100 91 84 76 77 66 57 83 94 100 100 100 100 100
75 60 63 54 47 48 58 56 55 98 100 100 100 100 100 99 100 100 100 100 100 100 100 100 100 100 100 100 100 100 100 99
36 47 76 74 66 71 61 65 60 55 76 84 76 75 94 100 100 100 100 100 100 100 100 100 100 100 100 100 100 100 79 92
40 79 100 100 99 92 81 86 82 67 77 85 83 99 100 98 94 90 100 100 100 100 100 100 100 100 100 100 100 100 100 100
49 70 100 100 97 100 100 100 99 66 75 76 90 93 100 100 100 100 100 100 100 100 100 100 100 100 100 100 100 100 100 100
45 55 100 100 100 100 100 100 100 100 83 97 98 100 100 100 100 100 100 100 100 100 100 94 91 96 100 100 100 100 100 100
42 50 99 100 100 100 100 100 100 100 90 95 94 100 100 100 100 100 100 100 99 100 100 100 100 100 100 100 100 100 100 100
32 44 75 90 98 100 100 100 100 100 100 98 88 94 100 97 97 100 100 100 100 100 100 100 100 100 100 100 100 100 100 100
43 56 53 70 91 100 100 100 100 100 100 100 100 69 79 95 98 95 92 100 100 100 100 100 100 100 100 100 100 100 100 100
30 46 58 51 56 89 100 100 100 100 100 100 100 94 81 70 88 100 96 82 80 87 82 80 96 100 100 100 100 100 100 100
24 33 39 46 45 57 66 75 77 86 82 91 99 94 85 55 58 78 100 100 100 94 88 83 85 98 100 100 100 100 100 100

GFSFLT1_250_rhum_204.txt.gz
RH
83 38 33 44 40 35 30 33 42 39 42 58 66 74 78 99 100 93 90 99 84 81 99 98 91 91 99 99 100 100 100 100
91 76 41 42 53 43 35 28 47 40 34 41 43 55 63 71 89 92 100 69 62 56 48 81 71 60 71 84 87 99 99 100
86 100 94 56 44 51 79 47 30 34 42 38 44 39 51 79 95 100 100 86 57 39 28 50 80 80 85 90 79 95 100 100
43 51 98 87 100 79 66 76 48 32 31 35 40 51 62 76 100 100 99 100 99 54 31 30 40 65 93 100 100 100 98 91
32 42 59 100 93 96 88 75 68 40 48 86 79 65 79 69 90 100 92 89 100 76 39 30 27 61 100 95 98 100 94 94
47 54 64 75 100 100 77 90 100 100 83 68 90 85 86 99 100 100 100 100 100 94 62 45 35 56 89 95 100 100 99 100
66 61 74 86 70 69 70 58 74 88 96 92 100 100 78 88 97 100 100 100 100 100 79 70 52 48 45 59 86 87 78 85
40 69 70 40 49 55 55 48 62 70 75 84 100 100 87 96 100 100 100 100 100 100 100 97 78 70 68 71 85 82 71 77
94 75 67 68 71 62 53 43 56 69 88 73 79 71 100 100 100 100 84 95 100 100 100 100 100 90 88 85 81 83 85 81
64 97 68 51 46 90 91 78 30 95 100 98 100 100 100 100 100 100 100 98 100 100 100 100 100 100 100 100 100 100 96 100
46 52 52 46 39 68 100 97 58 64 100 100 100 98 100 100 100 100 89 100 100 100 96 100 100 100 100 100 100 100 100 100
39 27 37 37 40 80 80 97 46 47 100 100 99 100 100 100 100 94 100 99 100 100 100 100 100 100 100 100 100 100 100 100
16 16 19 22 24 100 100 96 100 100 98 100 100 100 100 100 100 100 100 100 100 100 100 100 100 100 100 100 100 92 82 98
11 12 16 15 24 50 100 74 100 100 99 100 100 100 100 100 100 100 93 96 100 100 100 100 100 100 100 100 100 100 100 100
11 11 14 14 15 17 79 95 100 100 100 100 96 98 100 88 100 83 72 82 100 100 100 100 100 100 100 100 100 100 100 100
13 14 13 16 16 16 36 78 100 100 96 100 100 100 100 100 98 100 83 88 85 100 100 100 100 100 100 100 100 100 100 99
14 16 16 17 20 19 27 44 88 100 100 100 100 100 100 100 100 100 71 66 73 95 100 100 100 100 100 100 100 100 100 100
15 18 20 21 21 25 31 50 56 91 100 100 100 100 100 100 100 100 100 92 68 100 100 100 100 100 100 100 100 100 100 100
16 16 17 17 18 20 30 50 52 74 98 100 100 100 94 100 100 100 100 100 100 100 89 100 97 100 96 99 89 87 100 100

GFSFLT1_250_rhum_207.txt.gz
RH
59 78 82 68 77 60 48 72 66 46 37 38 24 23 27 62 74 72 82 100 100 69 100 100 100 100 93 71 64 86 87 77
42 39 38 52 75 100 100 79 84 36 28 27 22 19 21 31 58 70 66 96 100 100 97 78 100 94 79 57 99 96 84 82
39 37 41 37 34 34 31 90 100 97 67 34 29 29 44 55 34 50 76 88 100 100 100 86 78 80 70 63 87 68 68 85
33 26 46 37 43 33 28 47 95 85 57 72 56 65 80 100 85 44 54 88 100 100 100 100 98 75 67 63 73 69 58 96
50 38 39 56 49 62 75 81 92 99 96 72 76 96 67 99 100 100 75 72 100 100 100 100 100 100 74 61 63 40 36 78
61 53 46 43 40 50 67 85 99 100 100 100 92 89 74 87 100 100 100 100 100 100 100 100 100 100 100 72 55 59 40 64
68 78 70 75 51 70 63 60 58 70 81 98 96 68 66 78 77 94 98 100 99 100 100 100 100 100 100 100 100 77 68 52
92 99 97 95 82 99 100 95 67 59 66 64 69 65 63 87 85 96 68 78 89 100 100 100 100 100 100 100 100 97 85 77
100 100 100 100 100 100 97 100 100 90 64 68 63 62 52 99 100 100 100 80 86 98 100 100 100 100 100 100 100 97 92 97
100 100 100 100 100 100 100 100 100 82 60 49 62 60 77 73 83 100 100 100 100 100 89 95 100 100 98 97 100 94 100 100
100 100 100 95 79 59 48 34 33 30 28 49 95 37 39 100 100 100 100 88 100 100 99 100 100 99 58 97 100 100 100 100
100 94 68 28 22 24 24 18 19 60 20 100 100 70 65 100 100 100 100 100 98 100 100 100 100 82 66 69 82 100 100 100
54 21 10 12 12 8 10 12 24 100 31 100 100 100 33 100 100 97 100 100 99 99 100 100 100 100 100 100 78 86 100 100
8 8 7 7 7 8 9 11 13 40 52 98 100 100 81 100 99 100 99 100 100 100 100 100 100 100 100 100 100 100 100 100
7 7 7 8 8 8 10 11 11 23 97 63 100 100 100 100 100 100 90 99 100 100 100 100 98 100 100 100 100 100 100 100
8 8 9 10 10 9 10 10 11 13 71 73 98 100 100 100 100 100 100 100 100 100 99 98 100 100 100 100 100 100 98 96
9 9 9 11 12 12 12 10 10 10 42 56 90 100 100 100 100 100 100 97 100 100 100 100 100 100 100 100 100 100 100 100
8 9 9 12 11 12 14 12 12 12 12 24 74 94 100 100 100 100 100 100 100 100 100 100 100 100 100 100 100 100 94 99
7 8 9 10 12 12 12 12 13 14 13 15 16 41 100 86 99 100 100 100 100 100 100 100 100 100 100 100 100 100 89 82